2020-014D (45252 NORAD) Tracking and Keplerian Element Data

This shows tracking and keplerian element data for the satellite.

Feedback or suggestion? Click here.




ElementValue
Catalog45252
Name2020-014D
Epoch Orbit655
Epoch Day93.88414939
Epoch Year2020
RAAN168.1852
Inclination35.0041
Eccentricity0.0005987
Argument of Perigee315.897
Mean Anonmoly44.1269
Mean Motion15.29296945
Decay Rate2.026E-05
L11 45252U 20014D 20093.88414939 .00002026 00000-0 70830-4 0 9997
L22 45252 35.0041 168.1852 0005987 315.8970 44.1269 15.29296945 6550

Live tracking and technical data element details for 2020-014D (NORAD 45252). 2020-014D can be tracked NOW for your location showing map with azimuth and elevation plus other details from your city location.

Track the satellite on the map from your city or location and see movement details for azimuth, elevation, latitude, longitude, range, height, and movement on the map or in text.







IsCatalogInMostPopularTable: catalog: 45252, numindb: 11
Update: records affected: 1



GetName: 45252 2020-014D

Hit Count: updated at: Mon, 06 Apr 2020 10:32:11 GMT